Presure
128 112 113 136 122 138 157 144 141 110 146 136 145 137 139 166 125 195 150 188 190 131 139 141 123 150 125 138 136 137 160 218 290 289 238 132 187 115 178 188 194 202 207 212 217 217 239 225 198
133 142 125 113 122 122 126 114 119 110 113 127 144 124 143 147 156 131 132 201 198 175 164 162 141 166 170 211 172 152 121 124 132 203 122 229 215 211 210 197 213 219 204 173 174 172 183 197 199
116 125 123 120 115 149 126 128 132 117 127 124 144 120 117 138 123 117 153 134 175 197 188 164 125 150 167 160 119 144 139 200 158 206 196 137 199 185 175 182 174 176 172 166 155 160 146 148 155
129 123 114 130 151 139 145 147 146 113 125 143 117 130 118 128 134 140 142 123 118 126 106 133 112 151 102 93 94 131 126 147 188 204 158 136 163 165 96 179 177 174 180 175 150 152 147 145 153
112 139 115 127 138 132 151 126 144 119 112 144 119 118 134 132 123 132 138 124 126 124 146 145 136 109 109 112 97 178 155 110 173 151 188 200 176 132 197 199 197 195 191 158 165 160 154 160 162
147 133 141 115 142 146 130 132 138 137 111 124 128 118 127 119 128 133 130 130 133 139 128 120 120 133 126 123 144 142 145 111 164 139 153 148 159 195 129 210 211 212 207 181 163 166 188 200 193
116 128 127 146 139 139 108 127 131 137 108 129 130 123 126 118 138 144 131 129 127 116 128 123 137 107 127 132 165 204 180 199 192 200 186 171 165 221 158 138 210 181 168 172 169 144 270 288 304
139 142 119 149 123 133 132 138 139 148 143 107 121 121 130 121 134 139 130 128 135 129 120 136 127 133 132 132 130 148 185 168 165 199 211 187 165 172 191 199 201 174 184 172 209 289 264 303 306
124 129 121 119 136 132 126 142 123 144 144 134 138 128 125 132 120 128 137 133 119 121 127 131 140 137 134 130 134 130 130 169 177 191 241 218 186 201 175 196 214 184 174 200 191 249 247 222 245
137 131 133 138 132 128 124 134 133 144 135 145 111 117 118 121 123 118 122 131 135 139 138 133 131 134 138 138 128 133 137 135 174 183 198 203 201 187 197 213 223 171 167 186 223 152 247 260 251
127 113 135 123 132 132 126 130 136 131 137 142 118 152 123 122 117 127 130 134 119 133 140 140 147 145 135 133 135 128 134 133 142 174 190 212 226 186 159 214 212 179 170 162 170 163 152 174 250
119 111 115 137 128 136 123 129 128 161 132 134 143 120 136 122 119 124 109 130 136 135 129 138 142 141 133 135 139 128 126 135 143 180 181 211 200 194 159 184 155 186 171 172 163 167 161 155 168
118 116 114 122 144 122 118 123 112 129 138 134 139 137 134 137 124 117 124 122 123 116 130 127 130 133 138 148 138 129 125 127 139 173 173 164 198 220 157 154 240 210 180 127 172 179 165 165 190
106 106 140 120 120 133 135 122 130 130 121 131 138 137 146 136 125 133 117 117 116 124 117 134 135 125 135 138 139 139 124 128 128 146 174 156 183 198 195 153 159 169 217 151 180 181 145 194 170
131 111 124 121 119 113 126 156 133 131 141 131 135 136 137 143 132 143 146 147 144 126 127 129 136 139 134 135 146 129 134 150 127 137 162 179 162 173 207 144 144 145 152 193 176 176 120 197 134
130 141 113 117 114 122 133 126 155 135 131 131 127 135 134 143 124 145 148 128 128 153 132 134 135 144 165 144 149 128 145 171 127 128 155 169 145 163 171 218 137 137 134 137 140 192 186 181 181
125 133 133 115 118 122 128 130 130 166 141 127 125 136 141 137 146 143 154 145 144 155 136 149 147 136 149 156 164 157 151 121 131 124 126 160 164 147 154 173 167 142 132 132 133 174 165 170 164
139 133 133 123 116 129 125 118 134 129 142 125 133 131 138 136 135 147 141 140 130 147 150 143 125 147 133 145 144 117 117 127 134 125 125 154 173 147 150 144 158 145 136 126 131 128 178 151 182
140 136 138 136 141 121 124 129 132 133 163 124 146 133 131 127 134 129 144 130 141 135 148 145 134 127 126 128 134 135 144 117 123 119 126 129 155 168 143 146 150 164 135 132 128 125 179 163 180
136 142 139 135 112 123 123 126 128 136 128 150 137 132 132 127 126 124 132 136 144 142 143 143 141 115 123 125 135 152 132 162 165 121 171 128 134 152 145 148 144 143 182 128 124 126 179 198 184
163 140 142 126 118 125 140 122 131 103 146 113 119 119 122 122 125 126 128 134 132 139 135 149 141 139 137 131 124 125 122 130 147 133 136 110 136 152 155 151 138 142 139 166 122 220 205 193 181
158 163 123 148 141 126 120 122 118 129 127 158 155 168 130 127 131 144 131 138 138 130 137 136 136 149 146 122 145 149 161 125 147 130 143 127 138 173 148 155 136 141 136 134 118 134 201 236 193
160 183 161 158 146 140 140 116 128 123 129 105 120 145 151 116 138 128 141 135 136 139 139 141 146 135 141 143 129 133 159 155 146 164 164 143 127 124 136 149 156 165 129 134 173 121 159 203 196
172 178 182 166 136 157 152 152 131 118 137 140 120 123 130 146 130 153 138 139 136 135 135 129 134 145 137 143 142 147 148 108 157 144 153 155 120 141 131 185 144 143 158 148 162 164 139 160 203
146 154 157 162 165 160 153 151 117 132 109 111 118 124 131 120 125 130 141 141 128 128 129 132 136 135 140 127 137 137 143 150 143 155 160 152 159 155 148 129 137 145 147 136 164 122 161 154 176
152 142 148 154 156 160 164 135 128 135 117 130 116 129 142 137 144 141 128 152 141 126 126 126 128 134 139 142 129 135 137 139 139 151 149 151 151 156 146 144 127 138 146 168 154 140 157 159 171
126 144 158 152 154 155 164 106 162 159 158 132 106 144 146 119 123 134 133 137 144 135 125 128 131 126 134 138 141 131 134 140 135 137 143 112 149 155 166 147 129 139 178 146 168 125 162 127 150
152 129 120 157 148 150 163 156 140 168 164 162 132 135 140 144 134 127 134 139 140 161 132 129 129 139 132 133 139 135 134 132 134 144 138 144 141 128 156 143 154 162 159 169 145 142 162 125 159
152 143 145 144 153 153 144 158 159 160 167 148 165 133 121 139 130 132 145 154 125 140 157 126 130 130 135 136 134 146 127 139 134 139 142 139 137 143 150 149 152 154 157 162 162 154 173 176 119
184 185 141 164 127 84 152 91 86 150 170 169 168 121 155 94 139 127 129 136 149 130 107 148 128 125 133 134 167 173 128 134 132 139 136 148 143 140 150 148 149 152 155 143 158 173 154 137 166
Wind_Speed
21 16 20 11 23 16 19 16 18 38 27 28 35 31 29 32 30 28 26 27 26 28 31 33 30 31 34 33 33 32 26 10 7 7 24 18 16 25 13 21 24 24 25 26 22 19 20 21 18
21 26 13 22 21 19 22 27 26 34 26 24 30 33 28 31 30 29 29 29 26 28 27 28 29 31 32 29 30 27 33 30 26 16 25 9 11 11 11 6 12 11 9 6 4 6 6 4 6
14 15 20 15 17 22 20 16 14 27 20 22 26 31 29 29 29 28 31 33 30 30 33 31 29 31 31 29 30 29 29 26 24 18 15 24 6 4 3 3 4 3 3 2 4 6 10 12 14
15 13 11 9 13 8 3 5 4 27 16 22 25 24 25 25 29 28 30 26 23 32 22 30 27 33 21 20 20 31 30 32 28 23 26 26 19 10 26 4 5 6 6 4 7 7 10 16 17
14 11 9 8 2 9 8 13 8 21 23 19 21 24 22 24 24 27 27 26 27 30 29 30 32 23 22 26 18 33 30 24 29 30 27 20 18 24 8 8 9 10 9 5 4 7 10 15 21
16 9 11 12 14 8 12 11 10 9 23 14 16 21 21 23 23 24 25 24 27 29 27 27 26 33 31 29 29 29 29 19 31 27 29 29 28 17 23 9 6 6 7 6 11 12 19 21 21
13 11 11 9 13 12 16 11 9 4 24 11 14 18 19 22 20 21 23 24 26 22 25 27 29 16 28 30 33 33 33 33 33 28 25 26 27 20 25 25 11 11 9 14 17 17 9 7 10
17 13 14 11 12 8 8 8 4 5 8 20 12 16 16 18 17 17 21 22 22 23 23 26 25 27 27 27 27 35 39 38 37 36 27 26 26 26 25 21 12 12 15 17 20 17 16 16 9
15 14 13 14 7 10 8 6 12 3 12 8 12 10 14 11 15 17 17 18 24 22 23 23 24 25 25 24 28 27 28 41 39 40 26 25 24 26 27 26 24 15 22 20 19 22 21 19 20
21 14 11 13 7 7 9 7 12 6 8 7 13 10 11 13 14 18 18 18 18 20 21 21 21 24 26 27 25 30 32 32 41 42 38 31 29 25 26 28 24 22 22 19 22 19 23 24 24
19 13 9 11 15 11 9 7 7 5 6 5 6 10 7 10 13 11 13 13 18 21 21 22 22 26 27 28 28 27 32 32 39 43 43 35 31 30 30 28 20 24 23 21 24 25 21 27 28
18 17 16 13 11 13 11 7 5 7 4 4 6 7 8 6 8 10 19 13 16 18 21 20 21 26 26 27 29 27 28 31 37 45 47 38 36 36 29 38 26 23 26 27 26 27 22 22 30
23 22 19 19 14 15 15 14 15 5 3 3 3 1 0 5 5 8 8 13 14 18 17 18 19 25 26 27 26 25 24 29 31 44 47 44 44 38 32 32 30 27 31 28 27 31 26 29 28
21 20 28 19 18 18 18 14 10 9 11 4 5 3 3 3 6 4 8 11 12 12 14 17 20 21 24 26 25 24 19 24 21 36 47 44 44 43 39 31 36 26 24 29 28 30 31 26 28
37 27 28 24 21 17 18 19 17 13 11 9 10 7 5 2 3 2 8 9 9 9 13 17 16 19 19 23 24 22 24 31 25 33 45 44 44 41 45 26 27 26 34 29 30 28 26 28 34
39 44 30 26 27 26 24 24 22 20 18 17 12 10 7 6 7 3 7 4 9 14 12 15 16 15 18 21 23 18 27 32 26 29 39 42 41 39 41 40 27 25 27 30 28 30 31 31 30
48 42 36 29 32 32 31 26 27 24 28 21 17 12 10 7 3 0 7 6 7 13 10 13 14 15 17 20 20 22 26 18 23 22 30 38 41 38 42 39 32 28 27 29 28 30 29 30 29
58 41 37 40 33 35 33 30 30 26 24 19 17 16 12 6 8 2 0 3 5 7 6 9 13 15 17 21 19 11 13 19 22 21 24 37 37 33 35 35 34 28 27 27 29 32 26 31 27
56 49 50 43 39 40 37 33 31 27 27 22 23 15 12 12 8 6 4 4 6 8 6 8 7 13 16 19 19 18 20 13 16 18 23 30 34 36 34 31 31 34 27 27 30 31 28 30 23
53 62 51 47 41 44 39 33 33 28 24 15 21 18 18 16 13 13 9 10 8 9 10 8 9 12 12 13 17 20 18 23 24 16 29 25 28 31 26 32 30 32 38 26 28 30 27 15 21
73 63 62 54 47 44 48 33 38 24 36 25 27 24 22 20 17 15 12 13 10 10 9 9 11 8 7 7 11 13 11 16 19 17 20 22 25 27 25 31 29 29 28 37 27 18 17 16 20
69 76 48 64 61 52 40 37 29 34 28 22 16 23 27 24 22 20 17 17 18 12 11 10 8 10 12 7 13 15 20 9 17 15 18 18 21 27 23 27 26 29 28 25 23 30 25 17 19
77 78 73 72 67 63 55 36 46 41 40 27 31 28 27 22 27 21 23 23 23 18 13 13 11 7 14 14 6 10 19 18 16 19 19 14 18 24 25 24 27 32 24 25 40 24 34 26 22
76 75 76 74 60 70 66 60 51 30 49 50 35 33 34 30 29 30 27 28 27 21 16 12 12 11 9 14 15 14 13 6 20 17 18 20 16 21 17 22 22 22 31 26 34 35 27 36 27
60 64 70 73 71 75 70 63 41 55 38 32 38 40 42 34 33 30 28 30 24 22 19 14 17 13 10 6 12 11 13 12 11 17 19 18 20 20 18 13 17 19 20 18 33 16 36 32 38
67 62 69 72 72 83 76 59 56 58 42 52 44 48 48 44 44 37 31 32 33 26 21 21 20 20 17 13 8 10 10 10 9 15 14 14 15 19 12 13 14 18 17 26 22 18 31 34 37
49 63 79 75 75 75 71 31 72 70 70 61 19 49 49 35 38 39 37 39 40 37 31 31 26 20 20 15 13 11 12 14 9 8 12 2 14 18 24 14 11 16 26 15 22 15 27 18 26
72 59 46 77 70 65 70 67 59 70 75 75 47 49 49 46 46 41 43 48 45 39 38 34 30 28 22 18 19 15 16 14 13 11 11 14 10 7 18 10 17 24 22 26 13 14 23 15 21
82 71 71 71 76 66 54 65 72 74 79 70 76 53 40 52 52 50 50 44 38 48 44 36 33 30 30 29 24 25 18 21 17 14 11 11 12 14 15 14 14 18 20 23 24 19 21 25 15
101 100 65 80 59 23 64 24 14 64 84 80 80 50 72 28 48 44 47 50 47 45 29 49 32 31 31 32 25 24 21 23 18 20 14 15 15 12 17 13 13 17 19 8 22 27 17 10 22
Wind_Direction
133 126 106 89 87 34 354 41 33 78 46 49 41 48 45 32 55 26 47 30 38 53 52 52 57 52 60 53 58 63 63 76 97 191 236 56 245 55 269 262 267 272 271 273 277 286 274 275 270
132 135 116 115 94 88 72 86 72 79 64 51 48 66 50 48 44 57 51 31 42 46 56 56 56 51 50 50 52 52 57 57 55 63 53 227 241 256 262 275 274 280 272 279 305 331 348 302 271
148 138 135 100 100 338 87 62 28 72 56 56 46 69 69 52 68 69 49 56 52 51 50 55 57 53 48 50 64 54 65 53 47 54 55 48 62 72 32 10 329 272 284 323 32 19 335 326 307
154 136 119 121 130 100 235 120 337 83 63 45 70 58 70 57 57 48 55 67 76 63 87 43 79 47 76 76 71 47 51 44 57 57 42 39 43 60 79 5 346 355 306 332 12 354 342 330 307
142 174 122 115 168 52 103 89 57 84 77 58 65 71 55 55 69 57 55 63 61 66 50 45 47 82 72 56 69 47 48 54 51 45 52 53 47 46 357 323 300 287 292 4 27 351 331 312 300
192 156 171 125 129 139 117 87 60 62 82 61 61 76 60 67 56 59 57 53 52 54 58 61 61 50 49 49 46 45 44 60 44 45 44 42 44 32 46 348 344 336 312 322 25 358 306 284 265
155 149 130 159 135 137 124 103 74 47 99 69 70 70 63 76 54 57 58 56 62 72 56 56 48 85 51 42 50 55 50 48 47 46 44 44 42 36 42 45 43 52 60 36 24 27 339 297 265
215 213 147 159 127 107 109 79 91 71 69 104 75 76 62 66 53 58 64 56 49 55 64 42 54 50 52 54 50 50 44 43 41 39 35 36 40 47 47 36 38 52 29 35 7 53 43 55 97
182 174 154 141 156 147 139 95 104 52 69 72 64 71 79 69 70 54 52 60 74 65 51 49 40 44 45 48 51 52 48 40 40 37 37 38 43 48 43 43 34 50 62 23 34 44 47 55 77
211 182 181 180 173 164 154 152 120 97 106 59 105 92 85 74 70 71 59 54 50 46 47 46 44 46 39 41 49 45 45 45 38 39 37 38 42 47 41 36 37 77 71 45 39 45 61 71 88
201 165 206 192 173 184 187 159 131 140 130 83 136 47 84 72 74 56 48 48 70 52 43 42 38 44 39 42 40 49 41 46 40 37 38 41 42 48 52 40 48 72 75 67 63 69 50 69 91
182 188 183 229 190 195 185 162 123 171 164 163 89 127 83 105 85 59 88 34 39 46 62 36 36 44 45 39 38 43 48 38 38 39 39 40 42 44 54 47 49 66 71 70 58 72 56 49 79
201 198 197 202 198 201 176 163 166 233 207 246 131 267 156 80 78 89 53 66 48 68 49 56 42 47 45 38 38 44 46 43 35 39 43 41 40 44 52 51 46 39 66 62 64 64 66 67 88
198 198 218 201 199 206 205 202 213 209 186 242 274 231 313 260 92 31 76 73 71 45 69 41 35 55 45 48 42 40 49 43 50 39 42 44 39 39 43 52 53 50 45 59 63 63 60 78 73
223 213 210 200 204 212 217 201 226 210 225 217 242 248 238 260 278 351 58 14 27 22 39 40 27 24 34 49 36 40 36 33 49 36 44 39 44 45 41 55 55 48 58 65 61 67 61 77 50
220 226 216 205 206 219 218 212 202 225 215 208 217 228 236 273 157 61 43 45 47 28 29 40 38 17 25 31 28 46 44 34 38 44 42 43 47 42 46 39 55 47 48 51 53 66 71 73 77
223 214 209 217 216 215 221 218 216 219 217 202 194 228 236 251 248 130 42 36 23 37 23 10 18 41 23 56 31 35 44 35 37 53 46 47 45 47 46 40 44 49 53 50 47 60 56 59 55
226 218 209 213 223 219 222 212 226 219 225 218 208 201 225 224 259 172 230 327 317 20 34 325 64 21 42 50 31 70 44 45 37 47 46 44 41 51 51 50 41 47 51 60 47 45 58 49 67
225 225 226 224 226 227 226 229 232 227 240 227 219 215 226 192 256 242 262 253 306 291 343 345 9 52 56 61 44 46 38 22 31 43 28 46 43 41 45 51 47 33 52 49 53 52 54 44 52
220 227 225 222 229 220 228 227 239 236 203 221 220 212 217 210 215 233 271 288 291 299 312 320 334 110 74 51 54 42 43 42 43 31 41 36 45 48 39 42 46 53 33 59 62 53 51 61 43
222 222 223 215 224 227 224 226 231 208 248 218 213 217 211 224 216 232 241 270 267 281 292 327 312 337 358 53 66 52 51 33 35 37 39 60 37 41 43 44 41 42 48 35 66 68 68 54 41
222 225 210 227 228 219 222 225 226 229 229 225 205 207 222 222 238 236 253 261 263 253 267 278 292 342 329 78 11 32 35 32 32 29 31 25 38 29 43 44 36 39 43 53 72 41 46 64 45
221 223 224 226 228 230 228 222 224 228 224 210 222 209 218 224 230 229 236 254 253 252 262 278 292 310 321 334 350 360 26 29 34 31 40 32 28 31 36 45 43 43 46 35 28 63 30 38 35
220 219 220 225 226 230 230 231 220 208 226 227 226 230 234 230 235 223 238 236 249 253 251 252 274 294 307 325 332 354 11 97 18 6 17 32 33 29 31 21 43 38 35 38 35 30 33 26 34
220 218 218 222 222 229 228 228 224 224 215 222 226 228 230 227 233 235 234 238 245 243 244 253 271 269 265 250 313 322 341 9 1 10 11 17 21 32 29 24 41 49 36 41 30 63 26 24 22
218 217 220 221 219 224 226 228 224 225 230 225 220 221 225 229 228 234 241 239 241 248 249 242 242 262 270 268 255 293 320 331 338 1 5 12 14 19 63 47 38 28 26 24 35 36 27 24 19
219 218 219 221 222 223 224 228 226 228 230 227 230 227 226 235 240 235 236 241 239 240 241 246 247 235 255 265 273 272 299 306 304 324 347 117 4 6 8 30 27 32 11 26 19 15 17 42 23
229 225 221 222 227 224 223 223 236 229 232 234 226 228 228 227 229 239 238 243 246 239 242 246 245 247 255 254 266 260 269 273 287 316 322 339 339 29 3 12 21 19 26 19 29 25 19 34 24
229 222 224 223 226 226 221 222 227 230 230 231 233 228 219 223 226 232 237 239 240 249 241 250 243 244 248 254 253 257 243 272 275 285 297 318 308 325 345 359 18 13 22 25 19 15 353 2 32
227 225 224 227 223 234 224 210 210 223 229 229 229 234 234 235 215 229 236 237 236 246 223 240 245 241 250 252 260 260 233 254 256 274 279 288 289 302 322 340 354 4 8 29 16 2 12 11 355